GFSNW_prec_precacc_273.txt.gz
Total_Precipitation_Accumulation
1.45 1.51 2.17 2.82 2.89 3.69 4.59 4.94 4.30 1.85 1.88 4.01 4.44 2.59 0.97 0.47 0.25 0.29 0.81 1.13 1.27 1.33 1.34 1.49 2.07 1.60 1.20 0.65 0.81 1.13 1.23 2.45 1.36 0.88 0.62 0.84 1.41 2.60 4.03 5.77 5.27 4.78 4.56 4.70
1.61 1.55 2.01 3.03 3.36 4.29 5.28 5.85 3.61 2.83 2.97 3.36 2.05 1.03 0.57 0.54 0.51 0.45 0.96 1.11 1.35 1.51 1.59 1.82 1.36 1.49 0.92 0.70 0.95 1.39 1.43 2.28 1.91 1.16 1.06 1.27 1.42 1.62 2.38 3.68 4.72 4.97 4.60 4.83
1.96 1.69 1.95 3.12 3.44 4.36 5.92 6.49 4.74 4.61 4.87 2.08 0.95 0.98 0.95 0.86 0.56 0.57 0.77 1.18 1.30 1.32 1.08 1.00 1.19 0.90 0.51 0.33 0.45 0.76 1.41 2.21 1.75 1.59 1.49 1.78 1.96 1.60 1.64 2.70 4.36 3.45 3.23 3.02
2.20 1.94 1.95 3.08 3.82 4.95 7.22 8.04 4.18 2.17 2.73 1.97 1.12 1.09 1.36 0.93 0.79 0.73 0.64 1.09 1.04 1.23 1.42 0.83 0.66 0.66 0.47 0.30 0.30 0.41 1.04 2.08 1.22 0.99 1.00 0.83 1.14 1.45 1.62 1.92 2.05 2.64 2.79 2.11
2.35 2.13 2.18 2.97 4.17 6.12 9.09 7.66 2.53 1.31 0.79 0.54 1.14 1.98 1.89 1.01 0.72 1.09 0.84 0.79 0.54 0.83 1.23 1.12 0.94 0.85 0.90 0.78 0.48 0.55 0.72 1.41 1.18 0.99 0.76 0.59 0.87 1.10 0.81 0.97 1.52 1.73 1.10 1.84
2.42 2.55 2.53 3.08 4.29 7.02 10.04 5.85 1.92 2.18 1.42 0.74 1.29 1.28 1.05 0.87 0.95 0.91 0.75 0.91 1.17 1.00 0.71 0.70 0.73 0.65 0.75 0.80 0.86 0.89 0.86 1.09 1.19 0.96 0.43 0.66 1.53 1.34 0.74 0.57 0.62 0.68 0.94 1.63
2.63 2.56 2.87 3.58 4.42 5.54 5.58 3.66 1.86 2.99 2.44 1.33 0.90 0.65 0.74 0.76 0.90 1.16 0.62 0.69 0.89 0.65 0.50 0.59 0.65 0.59 0.43 0.46 0.45 0.82 1.22 0.96 1.33 1.04 0.84 1.87 1.32 0.52 0.42 0.31 0.33 0.43 0.43 0.49
2.88 2.50 2.76 3.90 4.43 3.95 3.71 2.90 2.58 3.10 2.28 0.85 0.83 0.83 0.75 0.63 0.72 0.90 0.66 0.59 0.67 0.74 0.87 1.33 1.12 0.83 0.70 0.31 0.30 0.33 0.53 1.11 1.69 1.41 0.93 0.80 0.47 0.25 0.32 0.39 0.38 0.26 0.19 0.28
3.21 2.74 2.81 3.69 4.23 3.73 3.74 2.77 2.91 3.93 3.36 1.32 0.55 1.00 1.11 1.00 0.92 0.99 0.69 0.48 0.36 0.73 1.19 1.64 1.38 0.82 0.66 0.48 0.43 0.37 0.65 1.09 2.22 1.93 1.43 0.87 0.52 0.14 0.12 0.38 0.83 0.26 0.13 0.13
3.00 3.07 3.08 3.15 3.72 3.94 4.04 3.21 2.50 4.63 4.28 1.01 0.58 0.76 0.88 0.98 1.00 1.20 0.93 0.84 0.89 1.09 1.61 1.67 1.12 0.85 0.61 0.83 0.66 0.71 1.06 1.72 2.46 2.31 2.47 1.18 0.36 0.16 0.17 0.97 1.24 0.37 0.28 0.20
2.36 2.52 3.19 3.44 3.35 3.88 4.81 3.75 2.20 3.25 3.77 1.29 0.65 0.57 0.63 0.62 0.82 1.27 1.43 1.64 1.86 1.97 2.09 1.77 1.31 1.09 1.00 0.89 0.76 0.78 1.13 1.56 1.67 1.94 2.48 1.86 0.56 0.57 0.90 1.12 0.50 0.23 0.19 0.23
2.25 2.05 2.40 3.47 3.58 3.75 4.72 4.57 2.83 3.02 3.44 2.05 0.88 0.45 0.40 0.44 0.58 0.95 1.21 1.56 1.49 2.18 2.45 1.91 1.29 1.06 1.09 0.89 1.20 0.68 1.11 0.93 1.16 1.29 1.78 1.42 1.10 1.03 0.64 0.39 0.48 0.39 0.24 0.29
2.01 1.89 2.15 3.05 3.59 3.84 4.34 4.04 2.85 4.59 4.61 2.20 1.15 0.95 0.38 0.26 0.22 0.45 1.03 0.93 1.07 1.43 1.60 1.69 1.34 1.18 0.77 0.85 0.79 0.80 0.89 0.92 1.24 1.49 1.18 0.86 1.25 0.99 0.60 0.47 0.53 0.44 0.25 0.26
1.91 1.97 2.33 3.03 3.66 3.76 4.12 3.89 2.82 3.68 3.44 2.79 1.42 0.66 0.63 0.37 0.23 0.19 0.32 0.51 0.55 0.81 1.15 1.52 1.38 0.82 0.43 0.53 0.50 0.52 0.68 0.81 0.93 1.45 1.12 0.97 1.00 1.25 0.69 0.42 0.40 0.40 0.19 0.18
2.02 2.16 2.69 3.46 4.17 4.11 4.19 3.71 2.57 2.32 2.85 3.02 1.63 0.64 0.57 0.66 0.48 0.33 0.34 0.46 0.73 1.10 1.67 1.41 0.69 0.41 0.50 0.42 0.65 0.45 0.18 0.49 1.17 1.48 1.47 1.37 1.22 1.10 1.13 0.74 0.49 0.42 0.52 0.41
2.19 2.34 2.98 3.51 4.01 4.90 5.74 8.41 4.75 2.09 2.44 3.13 2.14 1.16 0.51 0.62 0.68 0.76 0.59 0.64 0.95 1.39 1.65 1.30 0.63 0.39 0.79 0.65 0.69 0.54 0.55 0.36 0.36 0.63 0.78 1.14 1.18 0.72 0.41 0.34 0.22 0.14 0.33 0.28
2.31 2.60 2.80 3.36 3.88 4.45 4.13 4.11 2.78 1.43 2.38 3.68 2.31 1.59 0.96 0.75 1.14 1.20 1.17 1.01 1.56 1.70 1.91 1.40 0.78 0.55 1.07 1.04 0.62 0.36 0.25 0.16 0.10 0.13 0.24 0.30 0.21 0.17 0.04 0.02 0.02 0.02 0.05 0.10
2.62 3.11 3.26 3.88 4.30 4.57 2.81 1.25 1.09 1.53 2.74 2.60 2.39 1.71 1.70 1.02 1.80 1.79 1.39 1.72 1.92 1.83 1.50 1.03 0.70 0.77 1.42 1.38 0.32 0.06 0.02 0.02 0.04 0.07 0.07 0.06 0.05 0.03 0.02 0.02 0.02 0.02 0.03 0.08
3.06 3.55 4.55 6.19 6.12 5.17 3.19 1.61 1.84 1.94 2.92 2.62 1.41 1.29 2.23 1.48 1.95 2.23 1.79 1.68 1.92 1.40 1.29 0.85 0.87 1.01 1.51 0.94 0.30 0.12 0.07 0.07 0.12 0.11 0.08 0.08 0.10 0.11 0.12 0.11 0.12 0.16 0.28 0.33
3.33 4.88 6.29 7.44 4.88 2.98 2.97 4.59 5.36 4.26 2.21 1.36 0.92 0.83 1.65 1.87 2.09 2.38 2.40 1.89 1.34 1.21 0.86 0.90 1.33 1.06 0.59 0.31 0.37 0.38 0.33 0.26 0.20 0.19 0.16 0.17 0.17 0.17 0.23 0.29 0.36 0.46 0.45 0.36
5.24 6.12 5.30 4.62 3.43 2.99 4.01 4.65 4.00 2.70 1.57 0.62 0.52 0.48 0.86 1.43 2.17 1.78 1.65 2.14 1.94 1.26 0.92 0.96 1.28 1.25 0.82 0.62 0.68 0.41 0.22 0.16 0.20 0.23 0.24 0.26 0.29 0.38 0.48 0.47 0.36 0.29 0.32 0.40
3.34 3.15 3.74 4.03 4.18 3.92 3.23 2.82 1.75 1.03 0.62 0.35 0.38 0.44 0.57 1.20 2.30 2.36 1.63 1.62 1.62 1.60 1.50 1.62 1.36 0.95 0.71 0.75 0.77 0.44 0.28 0.19 0.20 0.25 0.35 0.41 0.49 0.51 0.39 0.32 0.35 0.41 0.43 0.52
2.60 3.05 3.56 3.47 3.54 3.26 2.24 1.44 0.74 0.74 0.66 0.51 0.42 0.74 1.09 1.06 1.98 2.57 1.94 1.70 1.66 1.41 1.74 1.82 1.46 0.96 0.59 0.58 0.53 0.46 0.36 0.32 0.36 0.43 0.50 0.36 0.29 0.31 0.38 0.46 0.60 0.62 0.69 0.88
2.82 3.05 2.93 2.55 1.98 1.30 0.99 0.61 0.52 0.60 0.67 0.62 0.59 0.90 1.19 1.36 2.08 2.72 2.28 1.81 1.07 1.38 1.41 1.32 1.28 0.95 1.10 0.76 0.69 0.61 0.68 0.74 0.68 0.71 0.70 0.83 0.74 0.81 0.96 0.85 0.88 0.70 0.79 0.98
1.81 1.46 1.42 1.13 1.13 0.94 0.81 0.68 0.68 0.75 1.09 1.19 1.50 1.58 1.53 1.77 2.07 1.62 1.35 1.06 1.01 1.04 1.12 1.78 1.13 0.93 0.86 0.72 0.60 0.61 0.65 0.70 0.76 0.85 0.91 1.02 0.93 0.84 1.10 1.08 0.89 0.66 0.64 0.64
0.76 0.97 1.32 1.09 0.98 1.07 1.01 0.89 0.92 1.15 1.48 1.58 1.62 1.73 1.77 1.81 1.31 1.09 0.93 0.82 1.33 1.49 1.01 0.99 0.88 0.81 0.82 0.88 0.85 0.84 0.89 0.79 0.71 0.69 0.68 0.72 0.70 0.66 0.68 0.75 0.71 0.65 0.49 0.47
0.73 1.14 1.38 1.32 1.09 1.13 1.19 1.07 1.04 1.07 1.24 1.44 1.14 1.47 1.40 1.33 1.21 1.38 1.18 1.67 1.95 1.31 1.08 0.91 0.89 0.92 0.93 0.90 0.87 0.89 0.78 0.62 0.56 0.55 0.51 0.49 0.46 0.35 0.27 0.35 0.51 0.46 0.45 0.42

GFSNW_prec_precacc_276.txt.gz
Total_Precipitation_Accumulation
1.45 1.52 2.18 2.83 2.91 3.71 4.64 5.00 4.36 1.97 2.70 4.80 4.79 2.60 0.97 0.47 0.25 0.29 0.81 1.13 1.27 1.33 1.34 1.49 2.07 1.60 1.20 0.65 0.81 1.13 1.23 2.45 1.36 0.88 0.62 0.84 1.41 2.60 4.03 5.77 5.27 4.78 4.56 4.70
1.61 1.55 2.01 3.04 3.37 4.30 5.32 5.95 3.67 2.97 3.76 4.20 2.29 1.04 0.57 0.54 0.51 0.45 0.96 1.11 1.35 1.51 1.59 1.82 1.36 1.49 0.92 0.70 0.95 1.39 1.43 2.28 1.91 1.16 1.06 1.27 1.42 1.62 2.38 3.68 4.72 4.97 4.60 4.83
1.96 1.70 1.96 3.14 3.45 4.37 5.94 6.60 4.84 4.76 5.60 2.60 1.01 1.02 0.96 0.86 0.56 0.57 0.77 1.18 1.30 1.32 1.08 1.00 1.19 0.90 0.51 0.33 0.45 0.76 1.41 2.21 1.75 1.59 1.49 1.78 1.96 1.60 1.64 2.70 4.36 3.45 3.23 3.02
2.21 1.95 1.96 3.09 3.83 4.96 7.28 8.17 4.30 2.35 3.15 2.36 1.18 1.11 1.37 0.93 0.79 0.73 0.64 1.09 1.04 1.23 1.42 0.83 0.66 0.66 0.47 0.30 0.30 0.41 1.04 2.08 1.22 0.99 1.00 0.83 1.14 1.45 1.62 1.92 2.05 2.64 2.79 2.11
2.37 2.14 2.19 2.99 4.18 6.14 9.20 7.73 2.61 1.44 0.95 0.66 1.20 2.02 1.90 1.01 0.72 1.09 0.84 0.79 0.54 0.83 1.23 1.12 0.94 0.85 0.90 0.78 0.48 0.55 0.72 1.41 1.18 0.99 0.76 0.59 0.87 1.10 0.81 0.97 1.52 1.73 1.10 1.84
2.44 2.57 2.55 3.11 4.30 7.08 10.16 5.88 1.99 2.35 1.53 0.82 1.36 1.31 1.05 0.87 0.95 0.91 0.75 0.91 1.17 1.00 0.71 0.70 0.73 0.65 0.75 0.80 0.86 0.89 0.86 1.09 1.19 0.96 0.43 0.66 1.53 1.34 0.74 0.57 0.62 0.68 0.94 1.63
2.65 2.59 2.90 3.60 4.44 5.59 5.60 3.67 1.93 3.26 2.63 1.43 1.01 0.66 0.74 0.76 0.90 1.16 0.62 0.69 0.89 0.65 0.50 0.59 0.65 0.59 0.43 0.46 0.45 0.82 1.22 0.96 1.33 1.04 0.84 1.87 1.32 0.52 0.42 0.31 0.33 0.43 0.43 0.49
2.90 2.54 2.79 3.91 4.44 3.97 3.72 2.92 2.68 3.40 2.47 0.90 0.85 0.83 0.75 0.63 0.72 0.90 0.66 0.59 0.67 0.74 0.87 1.33 1.12 0.83 0.70 0.31 0.30 0.33 0.53 1.11 1.69 1.41 0.93 0.80 0.47 0.25 0.32 0.39 0.38 0.26 0.19 0.28
3.23 2.77 2.83 3.70 4.23 3.73 3.75 2.82 3.03 4.21 3.53 1.35 0.56 1.00 1.11 1.00 0.92 0.99 0.69 0.48 0.36 0.73 1.19 1.64 1.38 0.82 0.66 0.48 0.43 0.37 0.65 1.09 2.22 1.93 1.43 0.87 0.52 0.14 0.12 0.38 0.83 0.26 0.13 0.13
3.01 3.09 3.09 3.15 3.72 3.94 4.06 3.28 2.61 4.87 4.42 1.03 0.58 0.76 0.88 0.98 1.00 1.20 0.93 0.84 0.89 1.09 1.61 1.67 1.12 0.85 0.61 0.83 0.66 0.71 1.06 1.72 2.46 2.31 2.47 1.18 0.36 0.16 0.17 0.97 1.24 0.37 0.28 0.20
2.38 2.53 3.20 3.44 3.35 3.88 4.85 3.81 2.31 3.44 3.95 1.34 0.65 0.57 0.63 0.62 0.82 1.27 1.43 1.64 1.86 1.97 2.09 1.77 1.31 1.09 1.00 0.89 0.76 0.78 1.13 1.56 1.67 1.94 2.48 1.86 0.56 0.57 0.90 1.12 0.50 0.23 0.19 0.23
2.26 2.06 2.40 3.47 3.59 3.76 4.75 4.64 2.95 3.15 3.63 2.09 0.88 0.45 0.40 0.44 0.58 0.95 1.21 1.56 1.49 2.18 2.45 1.91 1.29 1.06 1.09 0.89 1.20 0.68 1.11 0.93 1.16 1.29 1.78 1.42 1.10 1.03 0.64 0.39 0.48 0.39 0.24 0.29
2.01 1.89 2.15 3.05 3.60 3.86 4.39 4.14 3.06 4.87 4.82 2.31 1.20 0.96 0.38 0.26 0.22 0.45 1.03 0.93 1.07 1.43 1.60 1.69 1.34 1.18 0.77 0.85 0.79 0.80 0.89 0.92 1.24 1.49 1.18 0.86 1.25 0.99 0.60 0.47 0.53 0.44 0.25 0.26
1.92 1.98 2.33 3.03 3.67 3.79 4.18 4.09 3.21 4.06 3.69 3.12 1.63 0.67 0.63 0.37 0.23 0.19 0.32 0.51 0.55 0.81 1.15 1.52 1.38 0.82 0.43 0.53 0.50 0.52 0.68 0.81 0.93 1.45 1.12 0.97 1.00 1.25 0.69 0.42 0.40 0.40 0.19 0.18
2.02 2.16 2.69 3.46 4.18 4.16 4.31 4.00 3.05 2.63 3.01 3.14 1.71 0.65 0.57 0.66 0.48 0.33 0.34 0.46 0.73 1.10 1.67 1.41 0.69 0.41 0.50 0.42 0.65 0.45 0.18 0.49 1.17 1.48 1.47 1.37 1.22 1.10 1.13 0.74 0.49 0.42 0.52 0.41
2.19 2.34 2.98 3.52 4.05 5.04 6.07 9.13 5.31 2.30 2.50 3.15 2.19 1.19 0.53 0.62 0.68 0.76 0.59 0.64 0.95 1.39 1.65 1.30 0.63 0.39 0.79 0.65 0.69 0.54 0.55 0.36 0.36 0.63 0.78 1.14 1.18 0.72 0.41 0.34 0.22 0.14 0.33 0.28
2.31 2.60 2.80 3.38 4.00 4.82 4.69 4.62 3.16 1.55 2.41 3.71 2.37 1.67 0.98 0.75 1.14 1.20 1.17 1.01 1.56 1.70 1.91 1.40 0.78 0.55 1.07 1.04 0.62 0.36 0.25 0.16 0.10 0.13 0.24 0.30 0.21 0.17 0.04 0.02 0.02 0.02 0.05 0.10
2.63 3.12 3.28 3.95 4.66 5.05 3.09 1.37 1.13 1.55 2.77 2.63 2.40 1.72 1.71 1.02 1.80 1.79 1.39 1.72 1.92 1.83 1.50 1.03 0.70 0.77 1.42 1.38 0.32 0.06 0.02 0.02 0.04 0.07 0.07 0.06 0.05 0.03 0.02 0.02 0.02 0.02 0.03 0.08
3.08 3.60 4.66 6.64 6.89 5.73 3.48 1.71 1.86 1.95 2.94 2.65 1.41 1.29 2.23 1.48 1.95 2.23 1.79 1.68 1.92 1.40 1.29 0.85 0.87 1.01 1.51 0.94 0.30 0.12 0.07 0.07 0.12 0.11 0.08 0.08 0.10 0.11 0.12 0.11 0.12 0.16 0.28 0.33
3.44 5.07 6.88 8.34 5.50 3.27 3.17 4.81 5.59 4.45 2.25 1.36 0.92 0.83 1.65 1.87 2.09 2.38 2.40 1.89 1.34 1.21 0.86 0.90 1.33 1.06 0.59 0.31 0.37 0.38 0.33 0.26 0.20 0.19 0.16 0.17 0.17 0.17 0.23 0.29 0.36 0.46 0.45 0.36
5.51 6.64 5.86 5.04 3.78 3.24 4.32 5.03 4.34 2.98 1.66 0.63 0.52 0.48 0.86 1.43 2.17 1.78 1.65 2.14 1.94 1.26 0.92 0.96 1.28 1.25 0.82 0.62 0.68 0.41 0.22 0.16 0.20 0.23 0.24 0.26 0.29 0.38 0.48 0.47 0.36 0.29 0.32 0.40
3.68 3.47 4.04 4.35 4.53 4.29 3.58 3.10 1.94 1.12 0.66 0.36 0.38 0.44 0.57 1.20 2.30 2.36 1.63 1.62 1.62 1.60 1.50 1.62 1.36 0.95 0.71 0.75 0.77 0.44 0.28 0.19 0.20 0.25 0.35 0.41 0.49 0.51 0.39 0.32 0.35 0.41 0.43 0.52
2.66 3.14 3.76 3.72 3.90 3.63 2.48 1.59 0.78 0.74 0.66 0.51 0.42 0.74 1.09 1.06 1.98 2.57 1.94 1.70 1.66 1.41 1.74 1.82 1.46 0.96 0.59 0.58 0.53 0.46 0.36 0.32 0.36 0.43 0.50 0.36 0.29 0.31 0.38 0.46 0.60 0.62 0.69 0.88
2.93 3.20 3.10 2.82 2.13 1.42 1.01 0.61 0.52 0.60 0.67 0.62 0.59 0.90 1.19 1.36 2.08 2.72 2.28 1.81 1.07 1.38 1.41 1.32 1.28 0.95 1.10 0.76 0.69 0.61 0.68 0.74 0.68 0.71 0.70 0.83 0.74 0.81 0.96 0.85 0.88 0.70 0.79 0.98
1.91 1.56 1.48 1.20 1.14 0.94 0.81 0.68 0.68 0.75 1.09 1.19 1.50 1.58 1.53 1.77 2.07 1.62 1.35 1.06 1.01 1.04 1.12 1.78 1.13 0.93 0.86 0.72 0.60 0.61 0.65 0.70 0.76 0.85 0.91 1.02 0.93 0.84 1.10 1.08 0.89 0.66 0.64 0.64
0.81 1.03 1.34 1.09 0.98 1.07 1.01 0.89 0.92 1.15 1.48 1.58 1.62 1.73 1.77 1.81 1.31 1.09 0.93 0.82 1.33 1.49 1.01 0.99 0.88 0.81 0.82 0.88 0.85 0.84 0.89 0.79 0.71 0.69 0.68 0.72 0.70 0.66 0.68 0.75 0.71 0.65 0.49 0.47
0.73 1.14 1.38 1.32 1.09 1.13 1.19 1.07 1.04 1.07 1.24 1.44 1.14 1.47 1.40 1.33 1.21 1.38 1.18 1.67 1.95 1.31 1.08 0.91 0.89 0.92 0.93 0.90 0.87 0.89 0.78 0.62 0.56 0.55 0.51 0.49 0.46 0.35 0.27 0.35 0.51 0.46 0.45 0.42

GFSNW_prec_precacc_279.txt.gz
Total_Precipitation_Accumulation
1.46 1.53 2.19 2.84 2.93 3.72 4.64 5.01 4.36 1.98 3.19 5.82 5.23 2.64 0.97 0.47 0.25 0.29 0.81 1.13 1.27 1.33 1.34 1.49 2.07 1.60 1.20 0.65 0.81 1.13 1.23 2.45 1.36 0.88 0.62 0.84 1.41 2.60 4.03 5.77 5.27 4.78 4.56 4.70
1.61 1.56 2.03 3.06 3.40 4.31 5.32 5.96 3.67 3.00 4.34 5.13 2.57 1.08 0.58 0.54 0.51 0.45 0.96 1.11 1.35 1.51 1.59 1.82 1.36 1.49 0.92 0.70 0.95 1.39 1.43 2.28 1.91 1.16 1.06 1.27 1.42 1.62 2.38 3.68 4.72 4.97 4.60 4.83
1.96 1.70 1.98 3.17 3.48 4.37 5.94 6.60 4.85 4.78 5.94 3.13 1.11 1.06 0.97 0.86 0.56 0.57 0.77 1.18 1.30 1.32 1.08 1.00 1.19 0.90 0.51 0.33 0.45 0.76 1.41 2.21 1.75 1.59 1.49 1.78 1.96 1.60 1.64 2.70 4.36 3.45 3.23 3.02
2.21 1.95 1.98 3.12 3.85 4.96 7.28 8.17 4.30 2.37 3.28 2.61 1.32 1.17 1.38 0.93 0.79 0.73 0.64 1.09 1.04 1.23 1.42 0.83 0.66 0.66 0.47 0.30 0.30 0.41 1.04 2.08 1.22 0.99 1.00 0.83 1.14 1.45 1.62 1.92 2.05 2.64 2.79 2.11
2.37 2.15 2.20 3.01 4.19 6.14 9.20 7.73 2.61 1.45 0.97 0.71 1.28 2.19 1.98 1.01 0.72 1.09 0.84 0.79 0.54 0.83 1.23 1.12 0.94 0.85 0.90 0.78 0.48 0.55 0.72 1.41 1.18 0.99 0.76 0.59 0.87 1.10 0.81 0.97 1.52 1.73 1.10 1.84
2.45 2.58 2.56 3.13 4.31 7.08 10.16 5.88 1.99 2.35 1.53 0.83 1.44 1.44 1.09 0.87 0.95 0.91 0.75 0.91 1.17 1.00 0.71 0.70 0.73 0.65 0.75 0.80 0.86 0.89 0.86 1.09 1.19 0.96 0.43 0.66 1.53 1.34 0.74 0.57 0.62 0.68 0.94 1.63
2.65 2.59 2.90 3.61 4.45 5.59 5.60 3.67 1.93 3.26 2.63 1.43 1.03 0.68 0.75 0.76 0.90 1.16 0.62 0.69 0.89 0.65 0.50 0.59 0.65 0.59 0.43 0.46 0.45 0.82 1.22 0.96 1.33 1.04 0.84 1.87 1.32 0.52 0.42 0.31 0.33 0.43 0.43 0.49
2.91 2.54 2.80 3.93 4.45 3.97 3.72 2.92 2.68 3.40 2.47 0.90 0.86 0.84 0.75 0.63 0.72 0.90 0.66 0.59 0.67 0.74 0.87 1.33 1.12 0.83 0.70 0.31 0.30 0.33 0.53 1.11 1.69 1.41 0.93 0.80 0.47 0.25 0.32 0.39 0.38 0.26 0.19 0.28
3.23 2.77 2.83 3.72 4.24 3.74 3.75 2.82 3.03 4.21 3.53 1.36 0.56 1.01 1.11 1.02 0.96 1.00 0.69 0.48 0.36 0.73 1.19 1.64 1.38 0.82 0.66 0.48 0.43 0.37 0.65 1.09 2.22 1.93 1.43 0.87 0.52 0.14 0.12 0.38 0.83 0.26 0.13 0.13
3.02 3.09 3.10 3.17 3.73 3.95 4.06 3.28 2.61 4.87 4.42 1.03 0.58 0.77 0.88 0.99 1.01 1.21 0.93 0.84 0.89 1.09 1.61 1.67 1.12 0.85 0.61 0.83 0.66 0.71 1.06 1.72 2.46 2.31 2.47 1.18 0.36 0.16 0.17 0.97 1.24 0.37 0.28 0.20
2.38 2.54 3.21 3.45 3.36 3.89 4.85 3.81 2.31 3.44 3.95 1.34 0.65 0.58 0.63 0.62 0.82 1.27 1.43 1.64 1.86 1.97 2.09 1.77 1.31 1.09 1.00 0.89 0.76 0.78 1.13 1.56 1.67 1.94 2.48 1.86 0.56 0.57 0.90 1.12 0.50 0.23 0.19 0.23
2.26 2.06 2.41 3.48 3.59 3.76 4.75 4.64 2.95 3.15 3.63 2.11 0.89 0.45 0.40 0.44 0.58 0.95 1.21 1.56 1.49 2.18 2.45 1.91 1.29 1.06 1.09 0.89 1.20 0.68 1.11 0.93 1.16 1.29 1.78 1.42 1.10 1.03 0.64 0.39 0.48 0.39 0.24 0.29
2.02 1.90 2.16 3.06 3.60 3.86 4.39 4.14 3.08 4.93 4.89 2.37 1.25 0.97 0.38 0.26 0.22 0.45 1.03 0.93 1.07 1.43 1.60 1.69 1.34 1.18 0.77 0.85 0.79 0.80 0.89 0.92 1.24 1.49 1.18 0.86 1.25 0.99 0.60 0.47 0.53 0.44 0.25 0.26
1.92 1.98 2.33 3.03 3.67 3.79 4.18 4.10 3.28 4.15 3.79 3.29 1.71 0.68 0.64 0.37 0.23 0.19 0.32 0.51 0.55 0.81 1.15 1.52 1.38 0.82 0.43 0.53 0.50 0.52 0.68 0.81 0.93 1.45 1.12 0.97 1.00 1.25 0.69 0.42 0.40 0.40 0.19 0.18
2.03 2.17 2.69 3.46 4.19 4.17 4.33 4.04 3.14 2.73 3.26 3.37 1.76 0.65 0.57 0.66 0.48 0.33 0.34 0.46 0.73 1.10 1.67 1.41 0.69 0.41 0.50 0.42 0.65 0.45 0.18 0.49 1.17 1.48 1.47 1.37 1.22 1.10 1.13 0.74 0.49 0.42 0.52 0.41
2.19 2.34 2.99 3.53 4.08 5.08 6.24 9.48 5.56 2.55 2.83 3.55 2.34 1.23 0.53 0.63 0.68 0.76 0.59 0.64 0.95 1.39 1.65 1.30 0.63 0.39 0.79 0.65 0.69 0.54 0.55 0.36 0.36 0.63 0.78 1.14 1.18 0.72 0.41 0.34 0.22 0.14 0.33 0.28
2.31 2.61 2.82 3.41 4.04 4.92 5.08 4.95 3.38 1.72 2.85 4.35 2.74 1.83 1.03 0.76 1.15 1.20 1.17 1.01 1.56 1.70 1.91 1.40 0.78 0.55 1.07 1.04 0.62 0.36 0.25 0.16 0.10 0.13 0.24 0.30 0.21 0.17 0.04 0.02 0.02 0.02 0.05 0.10
2.64 3.14 3.31 3.99 4.71 5.16 3.21 1.53 1.41 1.80 3.06 2.99 2.76 1.94 1.83 1.06 1.83 1.80 1.39 1.72 1.92 1.83 1.50 1.03 0.70 0.77 1.42 1.38 0.32 0.06 0.02 0.02 0.04 0.07 0.07 0.06 0.05 0.03 0.02 0.02 0.02 0.02 0.03 0.08
3.12 3.65 4.74 6.79 7.11 5.99 3.69 2.09 2.38 2.29 3.12 2.84 1.59 1.41 2.36 1.52 1.96 2.23 1.79 1.68 1.92 1.40 1.29 0.85 0.87 1.01 1.51 0.94 0.30 0.12 0.07 0.07 0.12 0.11 0.08 0.08 0.10 0.11 0.12 0.11 0.12 0.16 0.28 0.33
3.52 5.19 7.15 8.81 5.84 3.44 3.60 5.61 6.46 5.01 2.43 1.40 0.93 0.83 1.66 1.88 2.09 2.38 2.40 1.89 1.34 1.21 0.86 0.90 1.33 1.06 0.59 0.31 0.37 0.38 0.33 0.26 0.20 0.19 0.16 0.17 0.17 0.17 0.23 0.29 0.36 0.46 0.45 0.36
5.62 6.88 6.14 5.21 3.97 3.89 5.16 5.74 4.88 3.35 1.84 0.64 0.52 0.48 0.86 1.43 2.17 1.78 1.65 2.14 1.94 1.26 0.92 0.96 1.28 1.25 0.82 0.62 0.68 0.41 0.22 0.16 0.20 0.23 0.24 0.26 0.29 0.38 0.48 0.47 0.36 0.29 0.32 0.40
3.75 3.61 4.28 4.79 5.24 4.92 4.07 3.49 2.23 1.24 0.73 0.36 0.38 0.44 0.57 1.20 2.30 2.36 1.63 1.62 1.62 1.60 1.50 1.62 1.36 0.95 0.71 0.75 0.77 0.44 0.28 0.19 0.20 0.25 0.35 0.41 0.49 0.51 0.39 0.32 0.35 0.41 0.43 0.52
2.79 3.38 4.21 4.14 4.37 4.02 2.74 1.77 0.87 0.76 0.67 0.51 0.42 0.74 1.09 1.06 1.98 2.57 1.94 1.70 1.66 1.41 1.74 1.82 1.46 0.96 0.59 0.58 0.53 0.46 0.36 0.32 0.36 0.43 0.50 0.36 0.29 0.31 0.38 0.46 0.60 0.62 0.69 0.88
3.29 3.52 3.34 3.10 2.33 1.52 1.03 0.62 0.52 0.60 0.67 0.62 0.59 0.90 1.20 1.36 2.08 2.72 2.28 1.81 1.07 1.38 1.41 1.32 1.28 0.95 1.10 0.76 0.69 0.61 0.68 0.74 0.68 0.71 0.70 0.83 0.74 0.81 0.96 0.85 0.88 0.70 0.79 0.98
2.09 1.73 1.55 1.31 1.16 0.94 0.81 0.68 0.68 0.75 1.09 1.19 1.50 1.58 1.53 1.77 2.07 1.62 1.35 1.06 1.01 1.04 1.12 1.78 1.13 0.93 0.86 0.72 0.60 0.61 0.65 0.70 0.76 0.85 0.91 1.02 0.93 0.84 1.10 1.08 0.89 0.66 0.64 0.64
0.93 1.11 1.35 1.09 0.98 1.07 1.01 0.89 0.92 1.15 1.48 1.58 1.62 1.73 1.77 1.81 1.31 1.09 0.93 0.82 1.33 1.49 1.01 0.99 0.88 0.81 0.82 0.88 0.85 0.84 0.89 0.79 0.71 0.69 0.68 0.72 0.70 0.66 0.68 0.75 0.71 0.65 0.49 0.47
0.77 1.14 1.38 1.32 1.09 1.13 1.19 1.07 1.04 1.07 1.24 1.44 1.14 1.47 1.40 1.33 1.21 1.38 1.18 1.67 1.95 1.31 1.08 0.91 0.89 0.92 0.93 0.90 0.87 0.89 0.78 0.62 0.56 0.55 0.51 0.49 0.46 0.35 0.27 0.35 0.51 0.46 0.45 0.42

GFSNW_prec_precacc_282.txt.gz
Total_Precipitation_Accumulation
1.46 1.53 2.19 2.85 2.96 3.76 4.66 5.01 4.36 1.99 3.45 6.63 5.86 2.89 0.98 0.47 0.25 0.29 0.81 1.13 1.27 1.33 1.34 1.49 2.07 1.60 1.20 0.65 0.81 1.13 1.23 2.45 1.36 0.88 0.62 0.84 1.41 2.60 4.03 5.77 5.27 4.79 4.56 4.70
1.61 1.56 2.04 3.08 3.44 4.33 5.32 5.96 3.67 3.01 4.56 5.76 2.90 1.20 0.59 0.54 0.51 0.45 0.96 1.11 1.35 1.51 1.59 1.82 1.36 1.49 0.92 0.70 0.95 1.39 1.43 2.28 1.91 1.16 1.06 1.27 1.42 1.62 2.38 3.68 4.72 4.97 4.60 4.83
1.96 1.71 1.98 3.19 3.52 4.39 5.94 6.60 4.85 4.78 6.03 3.47 1.25 1.12 1.04 0.86 0.56 0.57 0.77 1.18 1.30 1.32 1.08 1.00 1.19 0.90 0.51 0.33 0.45 0.76 1.41 2.21 1.75 1.59 1.49 1.78 1.96 1.60 1.64 2.70 4.36 3.45 3.23 3.02
2.22 1.95 1.98 3.13 3.89 5.00 7.28 8.17 4.30 2.37 3.33 2.73 1.48 1.26 1.44 0.94 0.79 0.73 0.64 1.09 1.04 1.23 1.42 0.83 0.66 0.66 0.47 0.30 0.30 0.41 1.04 2.08 1.22 0.99 1.00 0.83 1.14 1.45 1.62 1.92 2.05 2.64 2.79 2.11
2.38 2.16 2.21 3.02 4.22 6.19 9.22 7.73 2.61 1.45 0.97 0.73 1.35 2.31 2.07 1.02 0.72 1.09 0.84 0.79 0.54 0.83 1.23 1.12 0.94 0.85 0.90 0.78 0.48 0.55 0.72 1.41 1.18 0.99 0.76 0.59 0.87 1.10 0.81 0.97 1.52 1.73 1.10 1.84
2.46 2.58 2.57 3.15 4.34 7.15 10.23 5.88 1.99 2.35 1.53 0.85 1.48 1.52 1.12 0.88 0.96 0.91 0.75 0.91 1.17 1.00 0.71 0.70 0.73 0.65 0.75 0.80 0.86 0.89 0.86 1.09 1.19 0.96 0.43 0.66 1.53 1.34 0.74 0.57 0.62 0.68 0.94 1.63
2.66 2.60 2.92 3.63 4.47 5.63 5.63 3.67 1.93 3.26 2.63 1.45 1.05 0.69 0.76 0.76 0.90 1.16 0.62 0.69 0.89 0.65 0.50 0.59 0.65 0.59 0.43 0.46 0.45 0.82 1.22 0.96 1.33 1.04 0.84 1.87 1.32 0.52 0.42 0.31 0.33 0.43 0.43 0.49
2.91 2.55 2.81 3.95 4.48 4.02 3.72 2.92 2.68 3.40 2.47 0.90 0.87 0.85 0.76 0.65 0.76 0.92 0.66 0.59 0.67 0.74 0.87 1.33 1.12 0.83 0.70 0.31 0.30 0.33 0.53 1.11 1.69 1.41 0.93 0.80 0.47 0.25 0.32 0.39 0.38 0.26 0.19 0.28
3.24 2.78 2.84 3.73 4.27 3.78 3.75 2.82 3.03 4.21 3.53 1.36 0.57 1.02 1.12 1.04 1.04 1.02 0.69 0.48 0.36 0.73 1.19 1.64 1.38 0.82 0.66 0.48 0.43 0.37 0.65 1.09 2.22 1.93 1.43 0.87 0.52 0.14 0.12 0.38 0.83 0.26 0.13 0.13
3.03 3.10 3.11 3.18 3.75 3.98 4.07 3.28 2.61 4.87 4.42 1.03 0.59 0.78 0.90 0.99 1.03 1.22 0.93 0.84 0.89 1.09 1.61 1.67 1.12 0.85 0.61 0.83 0.66 0.71 1.06 1.72 2.46 2.31 2.47 1.18 0.36 0.16 0.17 0.97 1.24 0.37 0.28 0.20
2.39 2.54 3.22 3.46 3.37 3.92 4.86 3.81 2.31 3.44 3.95 1.34 0.65 0.58 0.65 0.62 0.82 1.27 1.44 1.64 1.86 1.97 2.09 1.77 1.31 1.09 1.00 0.89 0.76 0.78 1.13 1.56 1.67 1.94 2.48 1.86 0.56 0.57 0.90 1.12 0.50 0.23 0.19 0.23
2.27 2.07 2.41 3.49 3.60 3.78 4.77 4.64 2.95 3.15 3.63 2.11 0.89 0.45 0.40 0.44 0.58 0.95 1.21 1.56 1.49 2.18 2.45 1.91 1.29 1.06 1.09 0.89 1.20 0.68 1.11 0.93 1.16 1.29 1.78 1.42 1.10 1.03 0.64 0.39 0.48 0.39 0.24 0.29
2.02 1.90 2.17 3.07 3.62 3.88 4.41 4.14 3.08 4.93 4.89 2.37 1.25 0.97 0.38 0.26 0.22 0.45 1.03 0.93 1.07 1.43 1.60 1.69 1.34 1.18 0.77 0.85 0.79 0.80 0.89 0.92 1.24 1.49 1.18 0.86 1.25 0.99 0.60 0.47 0.53 0.44 0.25 0.26
1.92 1.98 2.34 3.04 3.69 3.82 4.21 4.10 3.28 4.15 3.79 3.29 1.71 0.68 0.64 0.37 0.23 0.19 0.32 0.51 0.55 0.81 1.15 1.52 1.38 0.82 0.43 0.53 0.50 0.52 0.68 0.81 0.93 1.45 1.12 0.97 1.00 1.25 0.69 0.42 0.40 0.40 0.19 0.18
2.03 2.17 2.70 3.48 4.21 4.21 4.36 4.05 3.14 2.73 3.26 3.37 1.76 0.65 0.58 0.66 0.48 0.33 0.34 0.46 0.73 1.10 1.67 1.41 0.69 0.41 0.50 0.42 0.65 0.45 0.18 0.49 1.17 1.48 1.47 1.37 1.22 1.10 1.13 0.74 0.49 0.42 0.52 0.41
2.20 2.34 2.99 3.54 4.10 5.13 6.30 9.55 5.57 2.55 2.84 3.59 2.40 1.26 0.54 0.63 0.68 0.76 0.59 0.64 0.95 1.39 1.65 1.30 0.63 0.39 0.79 0.65 0.69 0.54 0.55 0.36 0.36 0.63 0.78 1.14 1.18 0.72 0.41 0.34 0.22 0.14 0.33 0.28
2.33 2.61 2.83 3.43 4.07 4.96 5.13 5.00 3.38 1.72 2.90 4.46 2.87 1.98 1.07 0.76 1.16 1.21 1.17 1.01 1.56 1.70 1.91 1.40 0.78 0.55 1.07 1.04 0.62 0.36 0.25 0.16 0.10 0.13 0.24 0.30 0.21 0.17 0.04 0.02 0.02 0.02 0.05 0.10
2.65 3.15 3.32 4.01 4.76 5.22 3.28 1.55 1.43 1.82 3.13 3.10 2.89 2.18 1.97 1.08 1.85 1.81 1.40 1.73 1.92 1.83 1.50 1.03 0.70 0.77 1.42 1.38 0.32 0.06 0.02 0.02 0.04 0.07 0.07 0.06 0.05 0.03 0.02 0.02 0.02 0.02 0.03 0.08
3.13 3.68 4.79 6.87 7.23 6.14 3.81 2.13 2.48 2.44 3.18 2.92 1.69 1.62 2.58 1.57 1.98 2.23 1.79 1.68 1.92 1.40 1.29 0.85 0.87 1.01 1.51 0.94 0.30 0.12 0.07 0.07 0.12 0.11 0.08 0.08 0.10 0.11 0.12 0.11 0.12 0.16 0.28 0.33
3.56 5.28 7.40 9.21 6.17 3.60 3.70 5.76 6.79 5.40 2.70 1.46 0.97 0.90 1.79 1.90 2.11 2.40 2.41 1.89 1.34 1.21 0.86 0.90 1.33 1.06 0.59 0.31 0.37 0.38 0.33 0.26 0.20 0.19 0.16 0.17 0.17 0.17 0.23 0.29 0.36 0.46 0.45 0.36
5.79 7.23 6.51 5.54 4.19 4.04 5.45 6.14 5.25 3.71 2.15 0.76 0.54 0.50 0.94 1.44 2.17 1.78 1.65 2.14 1.94 1.26 0.92 0.96 1.28 1.25 0.82 0.62 0.68 0.41 0.22 0.16 0.20 0.23 0.24 0.26 0.29 0.38 0.48 0.47 0.36 0.29 0.32 0.40
3.96 3.82 4.56 4.99 5.44 5.27 4.44 3.75 2.52 1.50 0.85 0.38 0.38 0.45 0.61 1.22 2.30 2.36 1.63 1.62 1.62 1.60 1.50 1.62 1.36 0.95 0.71 0.75 0.77 0.44 0.28 0.19 0.20 0.25 0.35 0.41 0.49 0.51 0.39 0.32 0.35 0.41 0.43 0.52
2.83 3.43 4.41 4.28 4.57 4.29 2.95 1.92 1.06 0.89 0.69 0.51 0.42 0.75 1.11 1.09 2.00 2.59 1.94 1.70 1.66 1.41 1.74 1.82 1.46 0.96 0.59 0.58 0.53 0.46 0.36 0.32 0.36 0.43 0.50 0.36 0.29 0.31 0.38 0.46 0.60 0.62 0.69 0.88
3.32 3.69 3.49 3.18 2.43 1.60 1.07 0.63 0.53 0.61 0.67 0.62 0.59 0.92 1.25 1.43 2.09 2.72 2.28 1.81 1.07 1.38 1.41 1.32 1.28 0.95 1.10 0.76 0.69 0.61 0.68 0.74 0.68 0.71 0.70 0.83 0.74 0.81 0.96 0.85 0.88 0.70 0.79 0.98
2.26 1.99 1.57 1.35 1.19 0.94 0.81 0.68 0.68 0.75 1.09 1.19 1.50 1.58 1.53 1.77 2.07 1.62 1.35 1.06 1.01 1.04 1.12 1.78 1.13 0.93 0.86 0.72 0.60 0.61 0.65 0.70 0.76 0.85 0.91 1.02 0.93 0.84 1.10 1.08 0.89 0.66 0.64 0.64
1.12 1.27 1.36 1.10 0.99 1.07 1.01 0.89 0.92 1.15 1.48 1.58 1.62 1.73 1.80 1.82 1.31 1.09 0.93 0.82 1.33 1.49 1.01 0.99 0.88 0.81 0.82 0.88 0.85 0.84 0.89 0.79 0.71 0.69 0.68 0.72 0.70 0.66 0.68 0.75 0.71 0.65 0.49 0.47
0.89 1.16 1.38 1.32 1.09 1.13 1.19 1.07 1.04 1.07 1.24 1.44 1.14 1.47 1.41 1.34 1.21 1.38 1.18 1.67 1.95 1.31 1.08 0.91 0.89 0.92 0.93 0.90 0.87 0.89 0.78 0.62 0.56 0.55 0.51 0.49 0.46 0.35 0.27 0.35 0.51 0.46 0.45 0.42

GFSNW_prec_precacc_285.txt.gz
Total_Precipitation_Accumulation
1.47 1.54 2.20 2.86 2.98 3.83 4.67 5.01 4.36 1.99 3.51 6.89 6.42 3.16 1.03 0.47 0.25 0.29 0.81 1.13 1.27 1.33 1.34 1.49 2.07 1.60 1.20 0.65 0.81 1.13 1.23 2.45 1.36 0.88 0.62 0.84 1.41 2.60 4.03 5.77 5.27 4.79 4.56 4.70
1.62 1.56 2.04 3.10 3.47 4.38 5.33 5.96 3.67 3.01 4.66 5.93 3.21 1.34 0.63 0.54 0.51 0.45 0.96 1.11 1.35 1.51 1.59 1.82 1.36 1.49 0.92 0.70 0.95 1.39 1.43 2.28 1.91 1.16 1.06 1.27 1.42 1.62 2.38 3.68 4.72 4.97 4.60 4.83
1.97 1.71 1.99 3.23 3.56 4.45 5.96 6.60 4.85 4.78 6.07 3.52 1.37 1.22 1.13 0.89 0.56 0.57 0.77 1.18 1.30 1.32 1.08 1.00 1.19 0.90 0.51 0.33 0.45 0.76 1.41 2.21 1.75 1.59 1.49 1.78 1.96 1.60 1.64 2.70 4.36 3.45 3.23 3.02
2.22 1.95 1.99 3.14 3.95 5.05 7.33 8.18 4.30 2.37 3.33 2.75 1.53 1.41 1.58 0.98 0.79 0.73 0.64 1.09 1.04 1.23 1.42 0.83 0.66 0.66 0.47 0.30 0.30 0.41 1.04 2.08 1.22 0.99 1.00 0.83 1.14 1.45 1.62 1.92 2.05 2.64 2.79 2.11
2.38 2.16 2.21 3.03 4.25 6.26 9.30 7.74 2.61 1.45 0.97 0.73 1.37 2.46 2.27 1.09 0.73 1.09 0.84 0.79 0.54 0.83 1.23 1.12 0.94 0.85 0.90 0.78 0.48 0.55 0.72 1.41 1.18 0.99 0.76 0.59 0.87 1.10 0.81 0.97 1.52 1.73 1.10 1.84
2.46 2.59 2.57 3.15 4.36 7.23 10.38 5.91 1.99 2.35 1.53 0.86 1.50 1.58 1.23 0.94 0.97 0.91 0.75 0.91 1.17 1.00 0.71 0.70 0.73 0.65 0.75 0.80 0.86 0.89 0.86 1.09 1.19 0.96 0.43 0.66 1.53 1.34 0.74 0.57 0.62 0.68 0.94 1.63
2.67 2.60 2.92 3.63 4.49 5.69 5.70 3.68 1.93 3.26 2.63 1.46 1.07 0.71 0.78 0.80 0.95 1.17 0.62 0.69 0.89 0.65 0.50 0.59 0.65 0.59 0.43 0.46 0.45 0.82 1.22 0.96 1.33 1.04 0.84 1.87 1.32 0.52 0.42 0.31 0.33 0.43 0.43 0.49
2.93 2.56 2.81 3.95 4.49 4.07 3.73 2.92 2.68 3.40 2.47 0.90 0.88 0.87 0.79 0.69 0.84 0.96 0.67 0.59 0.67 0.74 0.87 1.33 1.12 0.83 0.70 0.31 0.30 0.33 0.53 1.11 1.69 1.41 0.93 0.80 0.47 0.25 0.32 0.39 0.38 0.26 0.19 0.28
3.26 2.79 2.85 3.74 4.28 3.82 3.77 2.82 3.03 4.21 3.53 1.36 0.58 1.09 1.21 1.11 1.14 1.16 0.73 0.48 0.36 0.73 1.19 1.64 1.38 0.82 0.66 0.48 0.43 0.37 0.65 1.09 2.22 1.93 1.43 0.87 0.52 0.14 0.12 0.38 0.83 0.26 0.13 0.13
3.04 3.11 3.11 3.18 3.76 4.01 4.10 3.28 2.61 4.87 4.42 1.03 0.59 0.90 1.03 1.05 1.06 1.28 0.95 0.84 0.89 1.09 1.61 1.67 1.12 0.85 0.61 0.83 0.66 0.71 1.06 1.72 2.46 2.31 2.47 1.18 0.36 0.16 0.17 0.97 1.24 0.37 0.28 0.20
2.41 2.56 3.23 3.46 3.38 3.94 4.91 3.81 2.31 3.44 3.95 1.34 0.65 0.60 0.79 0.69 0.84 1.30 1.45 1.65 1.86 1.97 2.09 1.77 1.31 1.09 1.00 0.89 0.76 0.78 1.13 1.56 1.67 1.94 2.48 1.86 0.56 0.57 0.90 1.12 0.50 0.23 0.19 0.23
2.29 2.08 2.42 3.50 3.62 3.80 4.82 4.65 2.95 3.15 3.63 2.11 0.89 0.45 0.42 0.53 0.60 0.97 1.22 1.58 1.49 2.18 2.45 1.91 1.29 1.06 1.09 0.89 1.20 0.68 1.11 0.93 1.16 1.29 1.78 1.42 1.10 1.03 0.64 0.39 0.48 0.39 0.24 0.29
2.04 1.92 2.18 3.08 3.64 3.91 4.46 4.15 3.08 4.93 4.89 2.37 1.25 0.97 0.38 0.28 0.25 0.45 1.07 0.93 1.07 1.43 1.60 1.69 1.34 1.18 0.77 0.85 0.79 0.80 0.89 0.92 1.24 1.49 1.18 0.86 1.25 0.99 0.60 0.47 0.53 0.44 0.25 0.26
1.93 2.00 2.36 3.06 3.72 3.86 4.26 4.14 3.28 4.15 3.79 3.29 1.71 0.68 0.64 0.37 0.23 0.20 0.32 0.51 0.55 0.81 1.15 1.52 1.38 0.82 0.43 0.53 0.50 0.52 0.68 0.81 0.93 1.45 1.12 0.97 1.00 1.25 0.69 0.42 0.40 0.40 0.19 0.18
2.04 2.18 2.71 3.50 4.23 4.25 4.43 4.11 3.14 2.73 3.26 3.38 1.77 0.65 0.58 0.66 0.48 0.33 0.34 0.46 0.73 1.10 1.67 1.41 0.69 0.41 0.50 0.42 0.65 0.45 0.18 0.49 1.17 1.48 1.47 1.37 1.22 1.10 1.13 0.74 0.49 0.42 0.52 0.41
2.21 2.36 3.00 3.57 4.14 5.20 6.49 9.74 5.60 2.55 2.84 3.59 2.40 1.26 0.54 0.63 0.68 0.77 0.59 0.64 0.95 1.39 1.65 1.30 0.63 0.39 0.79 0.65 0.69 0.54 0.55 0.36 0.36 0.63 0.78 1.14 1.18 0.72 0.41 0.34 0.22 0.14 0.33 0.28
2.34 2.64 2.84 3.46 4.13 5.07 5.26 5.10 3.42 1.72 2.92 4.48 2.87 1.98 1.07 0.76 1.16 1.22 1.18 1.01 1.56 1.70 1.91 1.40 0.78 0.55 1.07 1.04 0.62 0.36 0.25 0.16 0.10 0.13 0.24 0.30 0.21 0.17 0.04 0.02 0.02 0.02 0.05 0.10
2.71 3.16 3.34 4.05 4.92 5.46 3.40 1.56 1.43 1.82 3.15 3.11 2.89 2.18 1.97 1.08 1.86 1.85 1.40 1.73 1.92 1.83 1.50 1.03 0.70 0.77 1.42 1.38 0.32 0.06 0.02 0.02 0.04 0.07 0.07 0.06 0.05 0.03 0.02 0.02 0.02 0.02 0.03 0.08
3.19 3.69 4.83 7.04 7.66 6.49 3.98 2.14 2.48 2.44 3.18 2.92 1.70 1.62 2.59 1.57 1.98 2.26 1.82 1.69 1.93 1.40 1.29 0.85 0.87 1.01 1.51 0.94 0.30 0.12 0.07 0.07 0.12 0.11 0.08 0.08 0.10 0.11 0.12 0.11 0.12 0.16 0.28 0.33
3.62 5.36 7.64 9.76 6.71 3.77 3.86 5.86 6.83 5.44 2.71 1.47 0.97 0.90 1.82 1.92 2.11 2.42 2.48 1.90 1.36 1.21 0.86 0.90 1.33 1.06 0.59 0.31 0.37 0.38 0.33 0.26 0.20 0.19 0.16 0.17 0.17 0.17 0.23 0.29 0.36 0.46 0.45 0.36
5.99 7.43 6.74 5.89 4.38 4.12 5.60 6.31 5.28 3.73 2.18 0.76 0.54 0.50 0.97 1.47 2.17 1.78 1.66 2.14 1.94 1.26 0.92 0.96 1.28 1.25 0.82 0.62 0.68 0.41 0.22 0.16 0.20 0.23 0.24 0.26 0.29 0.38 0.48 0.47 0.36 0.29 0.32 0.40
4.16 3.91 4.87 5.27 5.52 5.44 4.63 3.84 2.53 1.50 0.86 0.38 0.38 0.45 0.63 1.31 2.33 2.37 1.64 1.62 1.62 1.60 1.50 1.62 1.36 0.95 0.71 0.75 0.77 0.44 0.28 0.19 0.20 0.25 0.35 0.41 0.49 0.51 0.39 0.32 0.35 0.41 0.43 0.52
2.84 3.47 4.64 4.43 4.73 4.41 3.03 1.96 1.06 0.89 0.69 0.51 0.42 0.75 1.12 1.27 2.15 2.66 1.94 1.70 1.66 1.41 1.74 1.82 1.46 0.96 0.59 0.58 0.53 0.46 0.36 0.32 0.36 0.43 0.50 0.36 0.29 0.31 0.38 0.46 0.60 0.62 0.69 0.88
3.32 3.72 3.64 3.24 2.44 1.60 1.07 0.63 0.53 0.61 0.67 0.62 0.59 0.92 1.28 1.57 2.21 2.76 2.28 1.81 1.07 1.38 1.41 1.32 1.28 0.95 1.10 0.76 0.69 0.61 0.68 0.74 0.68 0.71 0.70 0.83 0.74 0.81 0.96 0.85 0.88 0.70 0.79 0.98
2.26 1.99 1.58 1.35 1.19 0.94 0.81 0.68 0.68 0.75 1.09 1.19 1.50 1.58 1.55 1.78 2.09 1.63 1.35 1.06 1.01 1.04 1.12 1.78 1.13 0.93 0.86 0.72 0.60 0.61 0.65 0.70 0.76 0.85 0.91 1.02 0.93 0.84 1.10 1.08 0.89 0.66 0.64 0.64
1.12 1.31 1.36 1.10 0.99 1.07 1.01 0.89 0.92 1.16 1.49 1.58 1.63 1.75 1.81 1.83 1.32 1.10 0.93 0.82 1.33 1.49 1.01 0.99 0.88 0.81 0.82 0.88 0.85 0.84 0.89 0.79 0.71 0.69 0.68 0.72 0.70 0.66 0.68 0.75 0.71 0.65 0.49 0.47
0.97 1.28 1.38 1.32 1.09 1.13 1.19 1.07 1.04 1.08 1.26 1.46 1.15 1.49 1.42 1.35 1.21 1.38 1.18 1.67 1.95 1.31 1.08 0.91 0.89 0.92 0.93 0.90 0.87 0.89 0.78 0.62 0.56 0.55 0.51 0.49 0.46 0.35 0.27 0.35 0.51 0.46 0.45 0.42